Time,TemperatureF,DewpointF,PressureIn,WindDirection,WindDirectionDegrees,WindSpeedMPH,WindSpeedGustMPH,Humidity,HourlyPrecipIn,Conditions,Clouds,dailyrainin,SolarRadiationWatts/m^2,SoftwareType,DateUTC
2013-03-08 00:12:00,19.0,16.0,30.50,East,93,0.0,3.0,89,0.00,,,0.00,0,weatherlink.com 1.10,2013-03-08 06:12:00,
2013-03-08 00:27:00,19.1,16.0,30.50,East,101,0.0,2.0,88,0.00,,,0.00,0,weatherlink.com 1.10,2013-03-08 06:27:00,
2013-03-08 00:42:00,18.4,16.0,30.52,East,101,0.0,0.0,88,0.00,,,0.00,0,weatherlink.com 1.10,2013-03-08 06:42:00,
2013-03-08 00:56:00,16.8,14.0,30.52,East,101,0.0,1.0,90,0.00,,,0.00,0,weatherlink.com 1.10,2013-03-08 06:56:00,
2013-03-08 01:11:00,16.6,14.0,30.52,East,101,0.0,0.0,90,0.00,,,0.00,0,weatherlink.com 1.10,2013-03-08 07:11:00,
2013-03-08 01:26:00,14.8,12.0,30.52,East,101,0.0,0.0,88,0.00,,,0.00,0,weatherlink.com 1.10,2013-03-08 07:26:00,
2013-03-08 01:41:00,14.1,12.0,30.53,East,101,0.0,0.0,90,0.00,,,0.00,0,weatherlink.com 1.10,2013-03-08 07:41:00,
2013-03-08 01:56:00,12.6,10.0,30.53,East,101,0.0,0.0,87,0.00,,,0.00,0,weatherlink.com 1.10,2013-03-08 07:56:00,
2013-03-08 02:11:00,11.1,9.0,30.54,East,101,0.0,0.0,92,0.00,,,0.00,0,weatherlink.com 1.10,2013-03-08 08:11:00,
2013-03-08 02:26:00,12.2,11.0,30.53,East,101,0.0,0.0,93,0.00,,,0.00,0,weatherlink.com 1.10,2013-03-08 08:26:00,
2013-03-08 02:41:00,12.8,11.0,30.53,East,101,0.0,0.0,94,0.00,,,0.00,0,weatherlink.com 1.10,2013-03-08 08:41:00,
2013-03-08 02:57:00,14.0,13.0,30.53,East,101,0.0,0.0,94,0.00,,,0.00,0,weatherlink.com 1.10,2013-03-08 08:57:00,
2013-03-08 03:11:00,12.6,11.0,30.52,East,101,0.0,0.0,92,0.00,,,0.00,0,weatherlink.com 1.10,2013-03-08 09:11:00,
2013-03-08 03:26:00,12.4,10.0,30.52,East,101,0.0,1.0,91,0.00,,,0.00,0,weatherlink.com 1.10,2013-03-08 09:26:00,
2013-03-08 03:41:00,12.1,10.0,30.52,East,101,0.0,0.0,92,0.00,,,0.00,0,weatherlink.com 1.10,2013-03-08 09:41:00,
2013-03-08 03:57:00,12.5,11.0,30.52,East,101,0.0,0.0,93,0.00,,,0.00,0,weatherlink.com 1.10,2013-03-08 09:57:00,
2013-03-08 04:12:00,11.2,9.0,30.52,East,101,0.0,0.0,90,0.00,,,0.00,0,weatherlink.com 1.10,2013-03-08 10:12:00,
2013-03-08 04:27:00,11.5,10.0,30.53,East,101,0.0,0.0,93,0.00,,,0.00,0,weatherlink.com 1.10,2013-03-08 10:27:00,
2013-03-08 04:42:00,11.5,10.0,30.53,East,101,0.0,0.0,92,0.00,,,0.00,0,weatherlink.com 1.10,2013-03-08 10:42:00,
2013-03-08 04:57:00,10.4,8.0,30.53,East,101,0.0,0.0,90,0.00,,,0.00,0,weatherlink.com 1.10,2013-03-08 10:57:00,
2013-03-08 05:12:00,9.7,8.0,30.53,East,101,0.0,0.0,91,0.00,,,0.00,0,weatherlink.com 1.10,2013-03-08 11:12:00,
2013-03-08 05:27:00,12.4,11.0,30.53,East,101,0.0,1.0,94,0.00,,,0.00,0,weatherlink.com 1.10,2013-03-08 11:27:00,
2013-03-08 05:42:00,12.2,10.0,30.53,East,101,0.0,0.0,90,0.00,,,0.00,0,weatherlink.com 1.10,2013-03-08 11:42:00,
2013-03-08 05:57:00,11.6,10.0,30.54,East,101,0.0,0.0,92,0.00,,,0.00,0,weatherlink.com 1.10,2013-03-08 11:57:00,
2013-03-08 06:12:00,11.1,9.0,30.54,East,101,0.0,0.0,90,0.00,,,0.00,0,weatherlink.com 1.10,2013-03-08 12:12:00,
2013-03-08 06:27:00,11.7,10.0,30.54,East,101,0.0,0.0,93,0.00,,,0.00,7,weatherlink.com 1.10,2013-03-08 12:27:00,
2013-03-08 06:42:00,11.6,9.0,30.54,East,101,0.0,0.0,90,0.00,,,0.00,18,weatherlink.com 1.10,2013-03-08 12:42:00,
2013-03-08 06:57:00,12.5,11.0,30.54,East,101,0.0,0.0,94,0.00,,,0.00,28,weatherlink.com 1.10,2013-03-08 12:57:00,
2013-03-08 07:12:00,10.8,8.0,30.54,East,101,0.0,0.0,89,0.00,,,0.00,63,weatherlink.com 1.10,2013-03-08 13:12:00,
2013-03-08 07:27:00,11.7,10.0,30.54,East,101,0.0,0.0,92,0.00,,,0.00,70,weatherlink.com 1.10,2013-03-08 13:27:00,
2013-03-08 07:42:00,14.1,13.0,30.54,East,101,0.0,1.0,94,0.00,,,0.00,139,weatherlink.com 1.10,2013-03-08 13:42:00,
2013-03-08 07:57:00,15.8,14.0,30.54,East,101,0.0,0.0,92,0.00,,,0.00,65,weatherlink.com 1.10,2013-03-08 13:57:00,
2013-03-08 08:12:00,15.9,14.0,30.54,East,101,0.0,0.0,93,0.00,,,0.00,60,weatherlink.com 1.10,2013-03-08 14:12:00,
2013-03-08 08:27:00,16.6,15.0,30.54,East,101,0.0,1.0,93,0.00,,,0.00,65,weatherlink.com 1.10,2013-03-08 14:27:00,
2013-03-08 08:42:00,17.9,17.0,30.54,East,101,0.0,0.0,94,0.00,,,0.00,70,weatherlink.com 1.10,2013-03-08 14:42:00,
2013-03-08 08:58:00,21.9,21.0,30.54,ESE,102,1.0,2.0,96,0.00,,,0.00,83,weatherlink.com 1.10,2013-03-08 14:58:00,
2013-03-08 09:13:00,24.9,23.0,30.54,ESE,123,2.0,2.0,93,0.00,,,0.00,113,weatherlink.com 1.10,2013-03-08 15:13:00,
2013-03-08 09:28:00,27.6,25.0,30.54,SE,146,2.0,3.0,88,0.00,,,0.00,104,weatherlink.com 1.10,2013-03-08 15:28:00,
2013-03-08 09:43:00,28.7,25.0,30.54,SSE,147,1.0,4.0,84,0.00,,,0.00,90,weatherlink.com 1.10,2013-03-08 15:43:00,
2013-03-08 09:58:00,29.7,25.0,30.54,SE,145,2.0,4.0,83,0.00,,,0.00,100,weatherlink.com 1.10,2013-03-08 15:58:00,
2013-03-08 10:13:00,30.9,26.0,30.54,SE,144,2.0,4.0,82,0.00,,,0.00,550,weatherlink.com 1.10,2013-03-08 16:13:00,
2013-03-08 10:28:00,32.6,26.0,30.54,SE,142,5.0,5.0,78,0.00,,,0.00,522,weatherlink.com 1.10,2013-03-08 16:28:00,
2013-03-08 10:43:00,32.9,27.0,30.53,SSE,163,2.0,4.0,78,0.00,,,0.00,424,weatherlink.com 1.10,2013-03-08 16:43:00,
2013-03-08 10:58:00,33.2,27.0,30.53,SSE,168,2.0,3.0,79,0.00,,,0.00,281,weatherlink.com 1.10,2013-03-08 16:58:00,
2013-03-08 11:13:00,33.3,27.0,30.52,SSE,167,3.0,4.0,79,0.00,,,0.00,394,weatherlink.com 1.10,2013-03-08 17:13:00,
2013-03-08 11:28:00,34.0,28.0,30.52,SE,144,1.0,3.0,78,0.00,,,0.00,123,weatherlink.com 1.10,2013-03-08 17:28:00,
2013-03-08 11:43:00,34.0,28.0,30.52,SSE,153,1.0,4.0,79,0.00,,,0.00,125,weatherlink.com 1.10,2013-03-08 17:43:00,
2013-03-08 11:57:00,34.9,28.0,30.52,SSE,148,2.0,4.0,77,0.00,,,0.00,698,weatherlink.com 1.10,2013-03-08 17:57:00,
2013-03-08 12:12:00,35.1,29.0,30.51,South,171,2.0,4.0,77,0.00,,,0.00,98,weatherlink.com 1.10,2013-03-08 18:12:00,
2013-03-08 12:27:00,35.7,29.0,30.51,SSE,163,4.0,5.0,76,0.00,,,0.00,111,weatherlink.com 1.10,2013-03-08 18:27:00,
2013-03-08 12:43:00,36.0,29.0,30.50,South,177,3.0,4.0,75,0.00,,,0.00,288,weatherlink.com 1.10,2013-03-08 18:43:00,
2013-03-08 12:58:00,36.1,29.0,30.49,SSE,158,3.0,4.0,74,0.00,,,0.00,462,weatherlink.com 1.10,2013-03-08 18:58:00,
2013-03-08 13:13:00,36.7,29.0,30.49,SSE,151,2.0,3.0,75,0.00,,,0.00,684,weatherlink.com 1.10,2013-03-08 19:13:00,
2013-03-08 13:28:00,37.3,29.0,30.48,SSE,159,2.0,4.0,73,0.00,,,0.00,668,weatherlink.com 1.10,2013-03-08 19:28:00,
2013-03-08 13:43:00,38.2,29.0,30.48,SSE,154,2.0,3.0,70,0.00,,,0.00,652,weatherlink.com 1.10,2013-03-08 19:43:00,
2013-03-08 13:58:00,38.2,30.0,30.47,SSE,155,2.0,4.0,72,0.00,,,0.00,146,weatherlink.com 1.10,2013-03-08 19:58:00,
2013-03-08 14:13:00,37.8,30.0,30.46,SSE,149,2.0,3.0,72,0.00,,,0.00,111,weatherlink.com 1.10,2013-03-08 20:13:00,
2013-03-08 14:28:00,37.6,29.0,30.46,SSE,166,2.0,4.0,72,0.00,,,0.00,104,weatherlink.com 1.10,2013-03-08 20:28:00,
2013-03-08 14:43:00,37.2,29.0,30.46,South,172,2.0,3.0,72,0.00,,,0.00,387,weatherlink.com 1.10,2013-03-08 20:43:00,
2013-03-08 14:58:00,37.3,29.0,30.45,SSE,163,2.0,4.0,73,0.00,,,0.00,506,weatherlink.com 1.10,2013-03-08 20:58:00,
2013-03-08 15:13:00,37.8,29.0,30.46,SSE,167,2.0,3.0,71,0.00,,,0.00,464,weatherlink.com 1.10,2013-03-08 21:13:00,
2013-03-08 15:28:00,37.7,29.0,30.45,SSE,166,1.0,3.0,71,0.00,,,0.00,396,weatherlink.com 1.10,2013-03-08 21:28:00,
2013-03-08 15:43:00,37.1,29.0,30.45,SSE,161,1.0,3.0,72,0.00,,,0.00,248,weatherlink.com 1.10,2013-03-08 21:43:00,
2013-03-08 15:58:00,36.6,29.0,30.44,SSE,163,1.0,3.0,74,0.00,,,0.00,151,weatherlink.com 1.10,2013-03-08 21:58:00,
2013-03-08 16:14:00,36.7,28.0,30.44,SSE,163,0.0,3.0,72,0.00,,,0.00,207,weatherlink.com 1.10,2013-03-08 22:14:00,
2013-03-08 16:29:00,36.6,29.0,30.43,SSE,163,1.0,2.0,73,0.00,,,0.00,156,weatherlink.com 1.10,2013-03-08 22:29:00,
2013-03-08 16:44:00,36.0,29.0,30.43,SSE,163,1.0,2.0,75,0.00,,,0.00,114,weatherlink.com 1.10,2013-03-08 22:44:00,
2013-03-08 16:59:00,35.5,29.0,30.43,SSE,163,1.0,2.0,76,0.00,,,0.00,86,weatherlink.com 1.10,2013-03-08 22:59:00,
2013-03-08 17:14:00,35.4,28.0,30.44,SSE,163,1.0,1.0,75,0.00,,,0.00,79,weatherlink.com 1.10,2013-03-08 23:14:00,
2013-03-08 17:29:00,35.0,28.0,30.44,SSE,163,0.0,1.0,76,0.00,,,0.00,32,weatherlink.com 1.10,2013-03-08 23:29:00,
2013-03-08 17:44:00,34.3,28.0,30.44,SSE,163,0.0,1.0,77,0.00,,,0.00,12,weatherlink.com 1.10,2013-03-08 23:44:00,
2013-03-08 17:59:00,33.6,27.0,30.45,SSE,163,0.0,1.0,78,0.00,,,0.00,0,weatherlink.com 1.10,2013-03-08 23:59:00,
2013-03-08 18:13:00,33.0,27.0,30.44,SSE,163,0.0,1.0,78,0.00,,,0.00,0,weatherlink.com 1.10,2013-03-09 00:13:00,
2013-03-08 18:28:00,32.4,27.0,30.44,SSE,163,0.0,1.0,79,0.00,,,0.00,0,weatherlink.com 1.10,2013-03-09 00:28:00,
2013-03-08 18:43:00,31.8,27.0,30.44,SSE,163,0.0,0.0,81,0.00,,,0.00,0,weatherlink.com 1.10,2013-03-09 00:43:00,
2013-03-08 18:58:00,30.7,26.0,30.43,SSE,163,0.0,0.0,81,0.00,,,0.00,0,weatherlink.com 1.10,2013-03-09 00:58:00,
2013-03-08 19:13:00,29.3,25.0,30.43,SSE,163,0.0,0.0,84,0.00,,,0.00,0,weatherlink.com 1.10,2013-03-09 01:13:00,
2013-03-08 19:28:00,29.6,26.0,30.42,SSE,163,0.0,1.0,85,0.00,,,0.00,0,weatherlink.com 1.10,2013-03-09 01:28:00,
2013-03-08 19:43:00,29.5,26.0,30.42,SSE,163,0.0,0.0,85,0.00,,,0.00,0,weatherlink.com 1.10,2013-03-09 01:43:00,
2013-03-08 19:59:00,29.5,26.0,30.43,SSE,163,0.0,0.0,85,0.00,,,0.00,0,weatherlink.com 1.10,2013-03-09 01:59:00,
2013-03-08 20:14:00,28.3,25.0,30.43,SSE,163,0.0,0.0,86,0.00,,,0.00,0,weatherlink.com 1.10,2013-03-09 02:14:00,
2013-03-08 20:29:00,28.1,25.0,30.42,SSE,163,0.0,1.0,87,0.00,,,0.00,0,weatherlink.com 1.10,2013-03-09 02:29:00,
2013-03-08 20:44:00,29.0,25.0,30.42,SSE,163,0.0,1.0,86,0.00,,,0.00,0,weatherlink.com 1.10,2013-03-09 02:44:00,
2013-03-08 20:59:00,28.8,25.0,30.41,SSE,163,0.0,1.0,85,0.00,,,0.00,0,weatherlink.com 1.10,2013-03-09 02:59:00,
2013-03-08 21:14:00,28.9,25.0,30.41,SSE,163,0.0,1.0,85,0.00,,,0.00,0,weatherlink.com 1.10,2013-03-09 03:14:00,
2013-03-08 21:29:00,28.8,25.0,30.40,SSE,163,0.0,2.0,86,0.00,,,0.00,0,weatherlink.com 1.10,2013-03-09 03:29:00,
2013-03-08 21:44:00,28.5,25.0,30.40,SSE,163,1.0,2.0,87,0.00,,,0.00,0,weatherlink.com 1.10,2013-03-09 03:44:00,
2013-03-08 21:59:00,28.7,26.0,30.40,SSE,151,1.0,2.0,88,0.00,,,0.00,0,weatherlink.com 1.10,2013-03-09 03:59:00,
2013-03-08 22:14:00,28.4,25.0,30.39,SSE,150,1.0,2.0,88,0.00,,,0.00,0,weatherlink.com 1.10,2013-03-09 04:14:00,
2013-03-08 22:29:00,27.8,25.0,30.38,SSE,150,1.0,1.0,88,0.00,,,0.00,0,weatherlink.com 1.10,2013-03-09 04:29:00,
2013-03-08 22:44:00,27.7,25.0,30.37,SSE,150,1.0,2.0,89,0.00,,,0.00,0,weatherlink.com 1.10,2013-03-09 04:44:00,
2013-03-08 23:13:00,27.5,25.0,30.36,SSE,150,1.0,2.0,89,0.00,,,0.00,0,weatherlink.com 1.10,2013-03-09 05:13:00,
2013-03-08 23:28:00,27.8,25.0,30.35,SSE,148,2.0,2.0,88,0.00,,,0.00,0,weatherlink.com 1.10,2013-03-09 05:28:00,
2013-03-08 23:44:00,28.2,25.0,30.35,SE,145,1.0,3.0,87,0.00,,,0.00,0,weatherlink.com 1.10,2013-03-09 05:44:00,
2013-03-08 23:59:00,28.1,25.0,30.35,SE,145,0.0,2.0,87,0.00,,,0.00,0,weatherlink.com 1.10,2013-03-09 05:59:00,